TimeEDT,TemperatureF,Dew PointF,Humidity,Sea Level PressureIn,VisibilityMPH,Wind Direction,Wind SpeedMPH,Gust SpeedMPH,PrecipitationIn,Events,Conditions,WindDirDegrees,DateUTC
12:15 AM,61.9,60.3,94,29.82,10.0,SW,8.1,-,N/A,,Unknown,220,2013-10-23 04:15:00
12:35 AM,61.9,60.4,95,29.81,10.0,SW,6.9,-,N/A,,Unknown,220,2013-10-23 04:35:00
12:55 AM,62.1,60.8,96,29.81,10.0,SW,6.9,-,N/A,,Unknown,220,2013-10-23 04:55:00
1:15 AM,62.1,59.7,92,29.81,10.0,SW,5.8,-,N/A,,Unknown,230,2013-10-23 05:15:00
1:35 AM,61.9,60.3,94,29.79,10.0,SW,5.8,-,N/A,,Unknown,220,2013-10-23 05:35:00
1:55 AM,61.7,60.3,95,29.79,10.0,SW,3.5,-,N/A,,Unknown,230,2013-10-23 05:55:00
2:15 AM,61.7,59.9,94,29.79,10.0,SW,6.9,-,N/A,,Unknown,220,2013-10-23 06:15:00
2:35 AM,61.2,60.1,96,29.79,10.0,SSW,6.9,-,N/A,,Unknown,210,2013-10-23 06:35:00
2:55 AM,61.2,60.3,97,29.78,10.0,SSW,8.1,-,N/A,,Unknown,210,2013-10-23 06:55:00
3:15 AM,61.2,60.8,99,29.77,10.0,SSW,10.4,-,N/A,,Unknown,210,2013-10-23 07:15:00
3:35 AM,61.0,60.3,97,29.76,10.0,SSW,9.2,-,N/A,,Unknown,210,2013-10-23 07:35:00
3:55 AM,61.2,60.3,97,29.75,10.0,SW,9.2,-,N/A,,Unknown,220,2013-10-23 07:55:00
4:15 AM,61.0,60.1,97,29.75,10.0,SW,10.4,-,N/A,,Unknown,220,2013-10-23 08:15:00
4:35 AM,60.8,59.9,97,29.74,10.0,SW,6.9,-,N/A,,Unknown,220,2013-10-23 08:35:00
4:55 AM,60.3,59.5,97,29.74,10.0,SSW,9.2,-,N/A,,Unknown,210,2013-10-23 08:55:00
5:15 AM,60.3,59.5,97,29.74,10.0,SSW,5.8,-,N/A,,Unknown,210,2013-10-23 09:15:00
5:35 AM,59.9,59.2,97,29.73,10.0,SSW,5.8,-,N/A,,Unknown,210,2013-10-23 09:35:00
5:55 AM,59.7,59.4,99,29.73,10.0,SSW,4.6,-,N/A,,Unknown,210,2013-10-23 09:55:00
6:15 AM,59.9,59.4,98,29.73,10.0,SSW,5.8,-,N/A,,Unknown,210,2013-10-23 10:15:00
6:35 AM,59.9,59.2,97,29.72,10.0,SSW,4.6,-,N/A,,Unknown,210,2013-10-23 10:35:00
6:55 AM,59.9,59.4,98,29.72,10.0,SW,4.6,-,N/A,,Unknown,220,2013-10-23 10:55:00
7:15 AM,59.9,59.2,97,29.71,10.0,SW,5.8,-,N/A,,Unknown,220,2013-10-23 11:15:00
7:35 AM,59.9,59.2,97,29.70,10.0,SSW,6.9,-,N/A,,Unknown,210,2013-10-23 11:35:00
7:55 AM,59.9,59.2,97,29.69,10.0,SW,6.9,-,N/A,,Unknown,220,2013-10-23 11:55:00
8:15 AM,59.7,59.2,98,29.70,7.0,SW,6.9,-,N/A,,Unknown,230,2013-10-23 12:15:00
8:35 AM,59.7,59.0,97,29.70,7.0,SW,8.1,-,N/A,,Unknown,230,2013-10-23 12:35:00
8:55 AM,59.9,59.0,97,29.70,10.0,West,10.4,16.1,N/A,,Unknown,260,2013-10-23 12:55:00
9:15 AM,59.9,59.0,97,29.69,5.0,WSW,10.4,-,N/A,,Mist,250,2013-10-23 13:15:00
9:35 AM,60.1,59.4,97,29.69,4.0,WSW,8.1,-,N/A,,Mist,240,2013-10-23 13:35:00
9:55 AM,60.4,59.5,97,29.68,5.0,SW,9.2,-,N/A,,Mist,230,2013-10-23 13:55:00
10:15 AM,61.2,59.7,95,29.68,7.0,WSW,8.1,-,N/A,,Unknown,250,2013-10-23 14:15:00
10:35 AM,61.3,59.7,94,29.69,7.0,West,10.4,16.1,N/A,,Unknown,260,2013-10-23 14:35:00
10:55 AM,61.5,59.5,93,29.68,10.0,West,6.9,-,N/A,,Unknown,260,2013-10-23 14:55:00
11:15 AM,62.1,59.9,93,29.68,10.0,West,6.9,-,N/A,,Unknown,260,2013-10-23 15:15:00
11:35 AM,64.0,60.3,87,29.67,10.0,WSW,8.1,-,N/A,,Unknown,250,2013-10-23 15:35:00
11:55 AM,63.7,59.9,87,29.66,10.0,WSW,6.9,-,N/A,,Unknown,240,2013-10-23 15:55:00
12:15 PM,66.6,59.4,78,29.66,10.0,WSW,9.2,-,N/A,,Unknown,250,2013-10-23 16:15:00
12:35 PM,66.6,58.5,75,29.66,10.0,West,8.1,-,N/A,,Unknown,260,2013-10-23 16:35:00
12:55 PM,61.5,59.4,93,29.66,5.0,NNW,6.9,-,0.03,Rain,Light Rain,330,2013-10-23 16:55:00
1:15 PM,62.4,60.3,93,29.66,7.0,NW,10.4,-,N/A,,Unknown,310,2013-10-23 17:15:00
1:35 PM,62.8,58.6,86,29.66,10.0,NW,13.8,-,N/A,,Unknown,320,2013-10-23 17:35:00
1:55 PM,63.3,56.7,79,29.66,10.0,NW,17.3,27.6,N/A,,Unknown,320,2013-10-23 17:55:00
2:15 PM,61.7,54.5,77,29.66,10.0,NNW,13.8,21.9,N/A,,Unknown,330,2013-10-23 18:15:00
2:35 PM,62.1,53.1,72,29.66,10.0,NNW,11.5,-,N/A,,Unknown,330,2013-10-23 18:35:00
2:55 PM,63.0,52.9,70,29.67,10.0,NW,9.2,18.4,N/A,,Unknown,310,2013-10-23 18:55:00
3:15 PM,63.1,52.2,67,29.68,10.0,NW,13.8,19.6,N/A,,Unknown,310,2013-10-23 19:15:00
3:35 PM,62.6,50.9,66,29.69,10.0,NW,16.1,26.5,N/A,,Unknown,310,2013-10-23 19:35:00
3:55 PM,63.9,50.4,61,29.69,10.0,NNW,15.0,19.6,N/A,,Unknown,330,2013-10-23 19:55:00
4:15 PM,64.2,49.8,59,29.70,10.0,NW,10.4,-,N/A,,Unknown,320,2013-10-23 20:15:00
4:35 PM,63.7,49.5,60,29.71,10.0,NW,11.5,16.1,N/A,,Unknown,320,2013-10-23 20:35:00
4:55 PM,63.5,49.3,60,29.71,10.0,NW,6.9,-,N/A,,Unknown,320,2013-10-23 20:55:00
5:15 PM,63.1,48.2,58,29.71,10.0,NW,6.9,10.4,N/A,,Unknown,310,2013-10-23 21:15:00
5:35 PM,63.0,45.7,53,29.73,10.0,NW,11.5,16.1,N/A,,Unknown,310,2013-10-23 21:35:00
5:55 PM,62.1,46.6,57,29.74,10.0,NNW,10.4,17.3,N/A,,Unknown,330,2013-10-23 21:55:00
6:15 PM,61.0,45.5,57,29.75,10.0,NW,8.1,-,N/A,,Unknown,320,2013-10-23 22:15:00
6:35 PM,59.4,46.4,62,29.77,10.0,NNW,8.1,-,N/A,,Unknown,330,2013-10-23 22:35:00
6:55 PM,56.5,47.8,73,29.79,10.0,North,8.1,-,N/A,,Unknown,350,2013-10-23 22:55:00
7:15 PM,56.1,47.3,72,29.79,10.0,NNW,8.1,-,N/A,,Unknown,340,2013-10-23 23:15:00
7:35 PM,57.2,46.8,68,29.81,10.0,NW,4.6,-,N/A,,Unknown,320,2013-10-23 23:35:00
7:55 PM,56.8,46.9,69,29.81,10.0,NW,4.6,-,N/A,,Unknown,320,2013-10-23 23:55:00
8:15 PM,55.6,47.3,74,29.83,10.0,NW,3.5,-,N/A,,Unknown,320,2013-10-24 00:15:00
8:35 PM,53.8,47.3,79,29.84,10.0,NW,3.5,-,N/A,,Unknown,310,2013-10-24 00:35:00
8:55 PM,53.2,48.0,82,29.84,10.0,Calm,Calm,-,N/A,,Unknown,0,2013-10-24 00:55:00
9:15 PM,52.7,48.0,84,29.85,10.0,NNW,3.5,-,N/A,,Unknown,340,2013-10-24 01:15:00
9:35 PM,51.6,48.2,88,29.86,10.0,Calm,Calm,-,N/A,,Unknown,0,2013-10-24 01:35:00
9:55 PM,52.0,48.4,88,29.87,10.0,NNW,5.8,-,N/A,,Unknown,330,2013-10-24 01:55:00
10:15 PM,54.1,48.7,82,29.89,10.0,NW,5.8,-,N/A,,Unknown,310,2013-10-24 02:15:00
10:35 PM,54.0,47.3,78,29.90,10.0,NW,5.8,-,N/A,,Unknown,310,2013-10-24 02:35:00
10:55 PM,54.9,44.8,69,29.91,10.0,NW,9.2,-,N/A,,Unknown,320,2013-10-24 02:55:00
11:15 PM,54.5,43.3,66,29.92,10.0,NW,12.7,17.3,N/A,,Unknown,320,2013-10-24 03:15:00
11:35 PM,53.6,43.0,67,29.93,10.0,NW,9.2,-,N/A,,Unknown,310,2013-10-24 03:35:00
11:55 PM,52.9,42.6,68,29.94,10.0,NW,9.2,-,N/A,,Unknown,320,2013-10-24 03:55:00